sat.trackr.live / text

‹ back to catalog

STARLINK-5416

NORAD 54855 · 2022-177AM

PAYLOAD ACTIVE UNKNOWN

§ Identity

Operator
Country
US
Launch date
2022-12-28
Launch site
AFETR
Launch vehicle
Mass (kg)
RCS (m²)

Purposes: comms

External: N2YO · Heavens-Above · Gunter

§ Orbital elements

Epoch: 2026-05-25T03:01:27.008256Z

Period
94.27 min
Inclination
43.0068°
Eccentricity
0.0001617
Mean motion
15.27574296 rev/d
Perigee alt
482.0 km
Apogee alt
484.2 km
Semi-major
6,861.2 km
B*
2.7107e-6
RAAN
49.6476°
Arg perigee
272.8937°
Mean anomaly
87.1729°
Rev number
18,878

§ Raw data

STARLINK-54161 54855U 22177AM  26145.12600704 -.00000188  00000+0  27107-5 0  99932 54855  43.0068  49.6476 0001617 272.8937  87.1729 15.27574296188783

JSON: /api/v1/satellites/54855 · /tle

For live sub-satellite position, see the globe view (requires WebGL).

§ Visibility from observer

Set your observer location to see the next 7 days of passes ≥ 10°. The values pass through the URL so the page stays shareable.

No JS? Fill the form by hand. The geolocation button needs JavaScript.